Location: Aufkirchen
(47.9603°N, 11.3653°E)
Time: 10:22:40
(UTC+01:00)

Tiros 1 - Pass Details

Date: 02 December 2020
Orbit: 630 x 663 km, 48.4° (Epoch: 28 January)

Event Time Altitude Azimuth Distance (km) Brightness Sun altitude
Rises 14:04:51 0° 219° (SW) 2,981 12.3 14.9°
Reaches altitude 10° 14:07:22 10° 210° (SSW) 2,073 13.0 14.7°
Maximum altitude 14:11:39 33° 147° (SSE) 1,112 8.9 14.4°
Drops below altitude 10° 14:15:56 10° 84° (E) 2,078 9.5 14.0°
Sets 14:18:27 0° 75° (ENE) 2,990 10.1 13.8°
